FW8256 Weather Reports


Display with metric or nautical units.
time (UTC)temp
F
wind
direction
speed
MPH
gust
MPH
rain 1hr
in
rain 24hr
in
rain mn
in
humidity
%
barometer
mb
20260905021553 91 360 2.0 8.0 0.00 0.00 0.00 50 1008.7
20260905014552 92 360 1.0 8.0 0.00 0.00 0.00 49 1008.3
20260905013050 93 360 2.0 6.0 0.00 0.00 0.00 49 1008.1
20260905011550 93 360 2.0 6.0 0.00 0.00 0.00 48 1008.0
20260905010057 94 360 3.0 6.0 0.00 0.00 0.00 48 1007.7
20260905004608 95 360 2.0 6.0 0.00 0.00 0.00 47 1007.7
20260905003049 95 154 2.0 8.0 0.00 0.00 0.00 45 1007.6
20260905001548 96 133 4.0 9.0 0.00 0.00 0.00 44 1007.6
20260905000048 97 110 4.0 9.0 0.00 0.00 0.00 44 1007.5
20260904234547 97 159 4.0 9.0 0.00 0.00 0.00 43 1007.4
20260904233052 98 135 3.0 10.0 0.00 0.00 0.00 43 1007.5
20260904231545 99 150 3.0 8.0 0.00 0.00 0.00 43 1007.4
20260904230046 98 139 4.0 9.0 0.00 0.00 0.00 43 1007.4
20260904224545 99 159 6.0 10.0 0.00 0.00 0.00 42 1007.3
20260904223046 99 143 5.0 11.0 0.00 0.00 0.00 42 1007.3
20260904221544 99 150 3.0 9.0 0.00 0.00 0.00 42 1007.3
20260904220041 99 102 3.0 9.0 0.00 0.00 0.00 42 1007.4
20260904214540 100 124 4.0 11.0 0.00 0.00 0.00 42 1007.5
20260904213038 100 149 5.0 12.0 0.00 0.00 0.00 42 1007.7
20260904211536 100 203 4.0 14.0 0.00 0.00 0.00 42 1007.8
20260904210038 100 190 5.0 11.0 0.00 0.00 0.00 40 1007.8
20260904204533 100 126 4.0 12.0 0.00 0.00 0.00 40 1008.0
20260904203031 100 114 4.0 9.0 0.00 0.00 0.00 41 1008.1
20260904201529 99 149 5.0 11.0 0.00 0.00 0.00 41 1008.4
20260904200027 100 197 4.0 11.0 0.00 0.00 0.00 42 1008.4
20260904194526 99 129 3.0 10.0 0.00 0.00 0.00 43 1008.5
20260904193022 99 138 5.0 12.0 0.00 0.00 0.00 44 1008.8
20260904191521 98 102 5.0 9.0 0.00 0.00 0.00 45 1008.9
20260904190024 98 168 3.0 8.0 0.00 0.00 0.00 47 1009.1
20260904184512 97 150 5.0 11.0 0.00 0.00 0.00 47 1009.3
20260904183007 96 141 3.0 11.0 0.00 0.00 0.00 50 1009.4
20260904181503 96 167 4.0 10.0 0.00 0.00 0.00 49 1009.6
20260904180111 95 138 2.0 9.0 0.00 0.00 0.00 51 1009.8
20260904174607 95 184 3.0 8.0 0.00 0.00 0.00 51 1010.0
20260904173103 94 190 3.0 9.0 0.00 0.00 0.00 53 1010.3
20260904171559 93 148 4.0 9.0 0.00 0.00 0.00 55 1010.3
20260904170047 92 162 3.0 9.0 0.00 0.00 0.00 55 1010.5
20260904164549 91 150 4.0 10.0 0.00 0.00 0.00 56 1010.5
20260904163042 91 167 4.0 11.0 0.00 0.00 0.00 57 1010.7
20260904161539 90 173 4.0 11.0 0.00 0.00 0.00 60 1010.7
20260904160037 89 197 2.0 11.0 0.00 0.00 0.00 61 1010.7
20260904154533 88 158 4.0 11.0 0.00 0.00 0.00 62 1010.5
20260904153029 87 175 3.0 11.0 0.00 0.00 0.00 65 1010.4
20260904151528 86 230 5.0 11.0 0.00 0.00 0.00 66 1010.5
20260904150030 84 172 4.0 11.0 0.00 0.00 0.00 68 1010.4
20260904144521 84 142 3.0 12.0 0.00 0.00 0.00 69 1010.5
20260904143017 82 185 4.0 11.0 0.00 0.00 0.00 71 1010.5
20260904141514 81 220 6.0 12.0 0.00 0.00 0.00 72 1010.4
20260904140014 80 228 4.0 12.0 0.00 0.00 0.00 73 1010.4
20260904134512 79 147 6.0 11.0 0.00 0.00 0.00 74 1010.5
20260904133011 78 194 4.0 11.0 0.00 0.00 0.00 76 1010.4
20260904131510 78 175 4.0 9.0 0.00 0.00 0.00 76 1010.5
20260904130009 77 190 2.0 8.0 0.00 0.00 0.00 78 1010.2
20260904124508 76 360 3.0 9.0 0.00 0.00 0.00 79 1010.1
20260904123006 76 360 2.0 6.0 0.00 0.00 0.00 79 1010.0
20260904121505 76 360 2.0 5.0 0.00 0.00 0.00 79 1009.9
20260904120003 76 360 2.0 6.0 0.00 0.00 0.00 79 1009.9
20260904114503 76 360 2.0 8.0 0.00 0.00 0.00 78 1009.8
20260904113101 76 360 2.0 9.0 0.00 0.00 0.00 78 1009.6
20260904111600 76 360 2.0 6.0 0.00 0.00 0.00 78 1009.7
20260904110057 76 360 2.0 6.0 0.00 0.00 0.00 78 1009.8
20260904104603 77 360 2.0 8.0 0.00 0.00 0.00 78 1009.7
20260904103105 77 360 4.0 8.0 0.00 0.00 0.00 77 1009.5
20260904101554 77 360 2.0 6.0 0.00 0.00 0.00 78 1009.6
20260904100052 77 360 3.0 6.0 0.00 0.00 0.00 78 1009.5
20260904094551 77 360 2.0 4.0 0.00 0.00 0.00 78 1009.6
20260904093050 77 360 2.0 4.0 0.00 0.00 0.00 78 1009.7
20260904091603 78 360 2.0 6.0 0.00 0.00 0.00 78 1009.5
20260904090049 78 360 2.0 6.0 0.00 0.00 0.00 78 1009.4
20260904084546 78 360 2.0 5.0 0.00 0.00 0.00 78 1009.5
20260904083104 78 360 2.0 8.0 0.00 0.00 0.00 79 1009.4
20260904081546 78 360 3.0 9.0 0.00 0.00 0.00 79 1009.3
20260904080043 78 360 3.0 9.0 0.00 0.00 0.00 78 1009.2
20260904074600 79 360 3.0 8.0 0.00 0.00 0.00 78 1009.1
20260904073040 79 360 2.0 6.0 0.00 0.00 0.00 78 1009.3
20260904071538 79 360 2.0 8.0 0.00 0.00 0.00 77 1009.3
20260904070037 79 360 2.0 8.0 0.00 0.00 0.00 77 1009.4
20260904064537 80 360 4.0 11.0 0.00 0.00 0.00 76 1009.6
20260904063033 80 360 2.0 5.0 0.00 0.00 0.00 76 1009.6
20260904061539 80 360 3.0 8.0 0.00 0.00 0.00 75 1009.6
20260904060031 80 360 3.0 9.0 0.00 0.00 0.00 75 1009.6
20260904054534 80 360 3.0 8.0 0.00 0.00 0.00 75 1009.5
20260904053028 81 360 3.0 10.0 0.00 0.00 0.00 74 1009.4
20260904051523 81 360 3.0 9.0 0.00 0.00 0.00 73 1009.3
20260904050022 82 360 2.0 9.0 0.00 0.00 0.00 72 1009.3
20260904044522 82 360 3.0 11.0 0.00 0.00 0.00 72 1009.3
20260904043021 82 360 3.0 8.0 0.00 0.00 0.00 71 1009.2
20260904041528 82 360 1.0 10.0 0.00 0.00 0.00 70 1009.4
20260904040019 83 360 4.0 9.0 0.00 0.00 0.00 69 1009.4
20260904034518 83 360 1.0 6.0 0.00 0.00 0.00 68 1009.5
20260904033017 84 360 2.0 8.0 0.00 0.00 0.00 67 1009.5
20260904031517 84 360 3.0 9.0 0.00 0.00 0.00 66 1009.4
20260904030017 85 360 4.0 11.0 0.00 0.00 0.00 65 1009.3
20260904024517 85 360 4.0 10.0 0.00 0.00 0.00 65 1009.2
20260904023015 86 360 4.0 10.0 0.00 0.00 0.00 64 1008.9